#timestamp,LO_Frequency,Hit,StdDev 
1589340175.6,286047001.4,P
1589340195.4,286046999.8,N
1589340215.3,286047003.0,P
1589340235.1,286047007.4,Y
1589340255.9,286047004.8,P
1589340275.7,286047005.5,P
1589340295.5,286047006.7,P
1589340315.4,286047008.5,Y
1589340335.2,286047005.6,P
1589340355.1,286047006.0,P
1589340356.0,286047006.0,P
1589340375.8,286047005.5,Y
1589340395.6,286046999.5,P
1589340415.5,286046998.3,N
1589340435.3,286047001.2,N
1589340455.1,286046997.0,N
1589340475.9,286046996.8,N
1589340495.7,286046997.5,N
1589340515.6,286046996.6,N
1589340535.4,286046999.0,N
1589340555.2,286046998.6,N
1589340575.1,286046998.4,N
1589340576.0,286046998.4,N
1589340595.8,286046998.8,N
1589340615.7,286046998.5,N
1589340635.5,286046996.6,N
1589340655.3,286046997.9,N
1589340675.2,286046998.4,N
1589340695.0,286047000.9,N
1589340695.9,286047000.9,N
1589340715.7,286046998.7,N
1589340735.6,286046998.9,N
1589340755.4,286046999.9,N
1589340775.3,286047000.4,N
1589340795.1,286047000.4,N
1589340796.0,286047000.4,N
1589340815.8,286047000.1,N
1589340835.7,286047004.2,N
1589340855.5,286047003.3,N
1589340875.3,286047005.4,N
1589340895.2,286047004.5,N
1589340915.0,286047007.6,Y
1589340915.9,286047007.6,P
1589340935.8,286047007.2,N
1589340955.6,286047007.3,N
1589340975.4,286047005.9,N
1589340995.3,286047003.7,N
1589341015.1,286047004.4,N
1589341035.9,286047001.4,N
1589341055.7,286047002.0,N
1589341075.5,286046999.8,N
1589341095.4,286047002.1,N
1589341115.2,286047003.5,N
1589341135.0,286047007.1,N
1589341136.0,286047007.1,N
1589341155.8,286047006.9,N
1589341175.6,286047007.5,N
1589341195.5,286047007.4,N
1589341215.3,286047008.7,Y
1589341235.1,286047004.1,P
1589341255.9,286046998.6,P
1589341275.7,286046997.8,N
1589341295.6,286046995.0,N
1589341315.4,286046995.9,N
1589341335.2,286046996.2,N
1589341355.1,286046993.5,N
1589341356.0,286046993.5,N
1589341375.8,286046994.1,N
1589341395.6,286046994.1,N
1589341415.5,286046995.1,N
1589341435.3,286046997.8,N
1589341455.2,286046997.4,N
1589341475.9,286046996.9,N
1589341495.7,286046999.1,N
1589341515.6,286046998.9,N
1589341535.4,286046996.9,N
1589341555.2,286046994.6,N
1589341575.1,286046991.8,N
1589341576.0,286046991.8,N
1589341595.8,286046990.2,N
1589341615.7,286046994.4,N
1589341635.5,286046993.8,N
1589341655.3,286046993.5,N
1589341675.2,286046996.1,N
1589341695.0,286046996.1,N
1589341695.9,286046996.1,N
1589341715.8,286046994.7,N
1589341735.6,286046993.2,N
1589341755.4,286046993.0,N
1589341775.3,286046992.6,N
1589341795.1,286046989.1,Y
1589341815.9,286046994.8,P
1589341835.7,286046994.4,P
1589341855.5,286046992.6,P
1589341875.4,286046992.9,Y
1589341895.2,286046995.6,P
1589341915.0,286046996.1,P
1589341915.9,286046996.1,P
1589341935.8,286046996.3,Y
1589341955.6,286047000.7,P
1589341975.5,286046998.3,N
1589341995.3,286046999.1,N
1589342015.1,286046998.4,N
1589342035.9,286046998.4,N
1589342055.7,286046997.7,N
1589342075.6,286046995.0,Y
1589342095.4,286046998.4,P
1589342115.2,286046996.6,P
1589342135.1,286046996.9,P
1589342136.0,286046996.9,Y
1589342155.8,286047002.0,P
1589342175.6,286047003.5,N
1589342195.5,286047003.7,N
1589342215.3,286047003.7,N
1589342235.2,286047005.8,N
1589342255.9,286047005.7,N
1589342275.7,286047005.3,N
1589342295.6,286047003.5,N
1589342315.4,286047003.5,N
1589342335.2,286047003.3,N
1589342355.1,286047004.8,N
1589342356.0,286047004.8,N
1589342375.8,286047003.3,N
1589342395.7,286047001.6,N
